Regional Weather Roundup
Issued by NWS

Home | Current Version | Previous Version | Text Only | Print | Product List | Glossary Off
Versions: 1 2 3 4 5 6 7 8 9 10 11 12 13 14 15 16 17 18 19 20 21 22 23 24 25 26 27 28 29 30 31 32 33 34 35 36 37 38 39 40 41 42 43 44 45 46 47 48 49 50

000
ASUS43 KBIS 181702
RWRND

NORTH DAKOTA REGIONAL WEATHER ROUNDUP
NATIONAL WEATHER SERVICE BISMARCK ND
1200 PM CDT FRI AUG 18 2017

NOTE: "FAIR" INDICATES FEW OR NO CLOUDS BELOW 12,000 FEET WITH NO
SIGNIFICANT WEATHER AND/OR OBSTRUCTIONS TO VISIBILITY.


NDZ001>003-009>011-017-181800-
NORTHWEST NORTH DAKOTA

CITY           SKY/WX    TMP DP  RH WIND       PRES   REMARKS
WILLISTON      SUNNY     75  54  47 CALM      29.98F
MINOT          SUNNY     77  54  44 W12       29.93S
MINOT AFB      SUNNY     76  52  41 NW13      29.91F
$$

NDZ018>021-031>035-040>046-181800-
SOUTHWEST NORTH DAKOTA

CITY           SKY/WX    TMP DP  RH WIND       PRES   REMARKS
BISMARCK       SUNNY     74  56  53 NW7       29.96F
DICKINSON      MOSUNNY   76  53  44 W8        30.00S
GARRISON         N/A     74  54  49 NW8       29.95S
HETTINGER ARPT SUNNY     76  49  38 N5        30.03S
$$

NDZ004>008-012>016-024-026-027-054-181800-
NORTHEAST NORTH DAKOTA

CITY           SKY/WX    TMP DP  RH WIND       PRES   REMARKS
GRAND FORKS    PTSUNNY   79  59  50 N8        29.84F
GRND FRKS AFB  MOSUNNY   76  59  55 NW7       29.86S
DEVILS LAKE    CLOUDY    73  58  59 NW13      29.91S
$$

NDZ022-023-025-028>030-036>039-047>053-181800-
SOUTHEAST NORTH DAKOTA

CITY           SKY/WX    TMP DP  RH WIND       PRES   REMARKS
FARGO          CLOUDY    71  61  70 CALM      29.88S
JAMESTOWN      CLOUDY    69  59  70 N7        29.91R
$$




USA.gov is the U.S. government's official web portal to all federal, state and local government web resources and services.